This demonstration page uses our WeatherBlox Daily Observations layout. Learn more.

Left ArrowRight Arrow

39.51506, -84.39828

Hourly Observations for October 23, 2018

Temp ( °F °C ) Dew Point ( °F °C ) Humidity (%) Winds ( mph kmh ) Pressure ( in mb ) Visibility ( mi km ) Precip ( " mm )
12:15 am 00:15 Clear 49 9.6 36 2.1 60 60 SW 5 7 30.15 1021 10 16.0934 0 0
12:35 am 00:35 Clear 47 8.2 36 2.4 67 67 SW 5 7 30.15 1021 10 16.0934 0 0
12:55 am 00:55 Clear 47 8.1 36 2.1 66 66 SW 7 11 30.12 1020 10 16.0934 0 0
1:15 am 01:15 Clear 46 7.8 36 2 67 67 SW 7 11 30.12 1020 10 16.0934 0 0
1:35 am 01:35 Clear 45 7.3 36 2 69 69 SW 7 11 30.12 1020 10 16.0934 0 0
1:55 am 01:55 Clear 42 5.8 35 1.6 75 75 SSW 6 9 30.15 1021 10 16.0934 0 0
2:15 am 02:15 Clear 42 5.3 35 1.6 77 77 S 6 9 30.15 1021 10 16.0934 0 0
2:35 am 02:35 Clear 41 4.8 35 1.6 80 80 S 6 9 30.18 1022 10 16.0934 0 0
2:55 am 02:55 Clear 41 4.9 35 1.9 81 81 SSW 6 9 30.18 1022 10 16.0934 0 0
3:15 am 03:15 Clear 39 3.8 35 1.4 85 85 Calm 30.15 1021 10 16.0934 0 0
3:35 am 03:35 Clear 40 4.5 35 1.7 82 82 S 3 6 30.15 1021 10 16.0934 0 0
3:55 am 03:55 Clear 41 4.9 36 2.2 83 83 Calm 30.12 1020 10 16.0934 0 0
4:15 am 04:15 Clear 40 4.5 36 2.1 85 85 Calm 30.15 1021 10 16.0934 0 0
4:35 am 04:35 Clear 37 2.6 34 1.3 91 91 S 3 6 30.15 1021 10 16.0934 0 0
4:55 am 04:55 Clear 38 3.5 36 2 90 90 S 5 7 30.15 1021 10 16.0934 0 0
5:15 am 05:15 Clear 37 2.8 34 1.2 89 89 S 5 7 30.15 1021 10 16.0934 0 0
5:35 am 05:35 Clear 37 2.7 34 1.1 89 89 S 5 7 30.15 1021 10 16.0934 0 0
5:55 am 05:55 Clear 38 3.5 37 2.5 93 93 Calm 30.15 1021 10 16.0934 0 0
6:15 am 06:15 Clear 38 3.4 37 2.9 97 97 Calm 30.18 1022 10 16.0934 0 0
6:35 am 06:35 Clear 39 3.8 36 2 88 88 Calm 30.18 1022 10 16.0934 0 0
6:55 am 06:55 Clear 36 2.3 35 1.8 97 97 Calm 30.18 1022 10 16.0934 0 0
7:15 am 07:15 Clear 38 3.1 37 2.5 96 96 Calm 30.18 1022 10 16.0934 0 0
7:35 am 07:35 Clear 37 3 36 2 93 93 Calm 30.18 1022 10 16.0934 0 0
7:55 am 07:55 Clear 37 2.5 34 1 90 90 Calm 30.18 1022 10 16.0934 0 0
8:15 am 08:15 Sunny 34 1.1 33 0.8 98 98 Calm 30.18 1022 7 11.26538 0 0
8:35 am 08:35 Sunny with Mist and Fog 34 1.1 34 0.9 99 99 S 3 6 30.21 1023 5 8.0467 0 0
8:55 am 08:55 Sunny 38 3.4 37 2.9 97 97 Calm 30.21 1023 10 16.0934 0 0
9:15 am 09:15 Sunny 44 6.7 40 4.5 86 86 Calm 30.18 1022 10 16.0934 0 0
9:35 am 09:35 Sunny 48 9 41 5 76 76 W 6 9 30.18 1022 10 16.0934 0 0
9:55 am 09:55 Sunny 50 10.2 40 4.5 68 68 W 5 7 30.21 1023 10 16.0934 0 0
10:15 am 10:15 Sunny 53 11.5 39 3.9 60 60 WNW 6 9 30.21 1023 10 16.0934 0 0
10:35 am 10:35 Sunny 54 12.4 39 4 57 57 NNW 6 9 30.21 1023 10 16.0934 0 0
10:55 am 10:55 Sunny 55 12.8 38 3.3 53 53 NNW 8 13 30.21 1023 10 16.0934 0 0
11:15 am 11:15 Sunny 56 13.2 37 2.6 49 49 NW 9 15 30.21 1023 10 16.0934 0 0
11:35 am 11:35 Sunny 57 13.8 36 2.4 46 46 NNW 5 7 30.21 1023 10 16.0934 0 0
11:55 am 11:55 Sunny 58 14.4 34 1.3 41 41 WNW 10 17 30.21 1023 10 16.0934 0 0
12:15 pm 12:15 Sunny 58 14.6 33 0.6 39 39 WNW 6 9 30.21 1023 10 16.0934 0 0
12:35 pm 12:35 Sunny 59 14.9 31 -0.3 36 36 WNW 12 19 30.21 1023 10 16.0934 0 0
12:55 pm 12:55 Sunny 60 15.3 32 0.2 36 36 NW 8 13 30.21 1023 10 16.0934 0 0
1:15 pm 13:15 Sunny 60 15.3 34 0.9 38 38 WNW 13 20 30.21 1023 10 16.0934 0 0
1:35 pm 13:35 Sunny 60 15.5 34 1.3 38 38 WNW 5 7 30.21 1023 10 16.0934 0 0
1:55 pm 13:55 Sunny 60 15.7 35 1.4 38 38 WSW 7 11 30.21 1023 10 16.0934 0 0
2:15 pm 14:15 Sunny 61 15.9 35 1.9 39 39 NW 9 15 30.18 1022 10 16.0934 0 0
2:35 pm 14:35 Sunny 61 16.1 34 1.2 37 37 WNW 12 19 30.18 1022 10 16.0934 0 0
2:55 pm 14:55 Sunny 61 16 34 1.1 37 37 WNW 10 17 30.18 1022 10 16.0934 0 0
3:15 pm 15:15 Sunny 61 16 35 1.9 39 39 NW 12 19 30.18 1022 10 16.0934 0 0
3:35 pm 15:35 Sunny 62 16.4 36 2.3 39 39 NNW 12 19 30.18 1022 10 16.0934 0 0
3:55 pm 15:55 Sunny 61 16 36 2 39 39 NW 8 13 30.18 1022 10 16.0934 0 0
4:15 pm 16:15 Sunny 60 15.7 35 1.6 39 39 NNW 10 17 30.21 1023 10 16.0934 0 0
4:35 pm 16:35 Sunny 60 15.6 36 2.1 40 40 WNW 7 11 30.21 1023 10 16.0934 0 0
4:55 pm 16:55 Sunny 60 15.5 36 2 40 40 NW 6 9 30.21 1023 10 16.0934 0 0
5:15 pm 17:15 Sunny 59 15.1 36 2.1 42 42 N 12 19 30.21 1023 10 16.0934 0 0
5:35 pm 17:35 Sunny 58 14.7 35 1.9 42 42 NNW 9 15 30.21 1023 10 16.0934 0 0
5:55 pm 17:55 Sunny 57 14 36 2.2 45 45 NNW 8 13 30.21 1023 10 16.0934 0 0
6:15 pm 18:15 Sunny 56 13.3 36 2.2 47 47 NNW 6 9 30.21 1023 10 16.0934 0 0
6:35 pm 18:35 Sunny 55 12.5 36 2.3 50 50 NNW 5 7 30.21 1023 10 16.0934 0 0
6:55 pm 18:55 Clear 53 11.4 36 2.1 53 53 NNW 6 9 30.24 1024 10 16.0934 0 0
7:15 pm 19:15 Clear 51 10.7 36 2 55 55 NNW 5 7 30.24 1024 10 16.0934 0 0
7:35 pm 19:35 Clear 51 10.3 36 2 57 57 NNW 6 9 30.24 1024 10 16.0934 0 0
7:55 pm 19:55 Clear 49 9.4 36 2 60 60 NNW 5 7 30.24 1024 10 16.0934 0 0
8:15 pm 20:15 Clear 48 9 36 2.1 62 62 N 5 7 30.24 1024 10 16.0934 0 0
8:35 pm 20:35 Clear 47 8.3 36 2 65 65 NNW 3 6 30.27 1025 10 16.0934 0 0
8:55 pm 20:55 Clear 46 8 36 2 66 66 NNW 5 7 30.27 1025 10 16.0934 0 0
9:15 pm 21:15 Clear 46 7.5 35 1.9 68 68 NNW 5 7 30.27 1025 10 16.0934 0 0
9:35 pm 21:35 Clear 44 6.6 35 1.8 72 72 NNW 5 7 30.27 1025 10 16.0934 0 0
9:55 pm 21:55 Clear 44 6.6 35 1.7 71 71 NNW 5 7 30.27 1025 10 16.0934 0 0
10:15 pm 22:15 Clear 44 6.5 35 1.7 72 72 NNW 6 9 30.27 1025 10 16.0934 0 0
10:35 pm 22:35 Clear 44 6.5 35 1.7 72 72 NNW 5 7 30.27 1025 10 16.0934 0 0
10:55 pm 22:55 Clear 43 6 35 1.7 74 74 NNW 6 9 30.33 1027 10 16.0934 0 0
11:15 pm 23:15 Clear 43 6.3 35 1.7 73 73 NNW 6 9 30.3 1026 10 16.0934 0 0
11:35 pm 23:35 Clear 43 5.9 35 1.8 75 75 NNW 5 7 30.33 1027 10 16.0934 0 0
11:55 pm 23:55 Clear 43 6.1 35 1.8 74 74 N 6 9 30.33 1027 10 16.0934 0 0

Powered by AerisWeather